Weather in Lagawe

Philippines     16°48′03″N   121°07′13″E
temp.,
°C
wind,
m/s
gust,
m/s
humid.,
%
clouds,
%
prec.,
mm/h
press.,
hPa
HPBL,
m
24 september, fri
fri2423:00+16w11965 1.4 101821
02:00+16w11976 1.4 101617
05:00+16w119813 0.0 101616
08:00+20e118713 0.0 1016357
11:00+25e32596 0.0 10141314
14:00+24e226814 1.1 10121116
17:00+20e1195100 3.9 1013121
20:00+18wnw0197100 4.6 101534
25 september, sat
sat2523:00+18e019881 0.2 101539
02:00+17wnw11975 0.3 101327
05:00+16wnw119616 0.0 101421
08:00+20ene118029 0.0 1014265
11:00+25ese32626 0.2 10131074
14:00+24e226997 1.9 10111062
17:00+20e119274 2.4 1012210
20:00+17w119664 5.6 101420
26 september, sun
sun2623:00+17w119799 0.0 101518
02:00+17wnw1195100 0.0 101221
05:00+16wnw1193100 0.0 101317
08:00+20e118315 0.0 1013321
11:00+25e2256100 0.0 10111176
14:00+24e227498 0.8 1010914
17:00+20e0196100 2.5 1011146
20:00+18wnw019797 3.9 101315
27 september, mon
mon2723:00+18w119840 0.2 101320
02:00+16wnw119658 0.2 101221
05:00+16wnw119596 0.0 101221
08:00+21ene11816 0.0 1012315
11:00+26e22535 0.0 10101386
14:00+24e227357 0.8 1008928
17:00+20ene119510 5.2 101042
20:00+18wsw119738 7.7 101214
28 september, tue
tue2823:00+17w1197100 0.0 101219
02:00+16wnw119678 0.0 101017
05:00+16wnw219695 0.0 101121
08:00+21nne017797 0.0 1011316
11:00+26e225298 0.0 10091372
14:00+23se217695 0.8 1008730
17:00+20n019440 2.8 100944
20:00+18w119780 6.3 101219